1394409625511,20.1164
1394409685511,20.0888
1394409745511,19.9840
1394409805511,20.0373
1394409865511,20.1326
1394409925511,20.0889
1394409985511,20.0498
1394410045511,19.9828
1394410105510,19.9818
1394410165510,19.9923
1394410225511,20.0299
1394410285511,19.9825
1394410345511,20.0551
1394410405511,20.1061
1394410465511,20.0475
1394410525511,20.0980
1394410585511,20.0853
1394410645511,20.0239
1394410705511,20.0958
1394410765511,20.1029
1394410825511,20.1222
1394410885511,20.3296
1394410945511,20.4596
1394411005511,20.8255
1394411065511,21.1497
1394411125511,20.8855
1394411185511,20.6557
1394411245511,20.6135
1394411305511,20.5048
1394411365511,20.3647
1394411425510,20.4700
1394411485510,20.5109
1394411545510,20.5440
1394411605511,20.4696
1394411665511,20.4080
1394411725511,20.3451
1394411785511,20.3694
1394411845511,20.3022
1394411905511,20.3509
1394411965511,20.2959
1394412025511,20.2935
1394412085511,20.2178
1394412145511,20.2187
1394412205511,20.1797
1394412265511,20.1610
1394412325511,20.1251
1394412385511,20.1854
1394412445511,20.1536
1394412505511,20.1320
1394412565511,20.1347
1394412625511,20.1343
1394412685511,20.1035
1394412745511,20.0631
1394412805510,20.0996
1394412865510,20.1227
1394412925511,20.0341
1394412985511,20.0376
1394413045511,20.0939
1394413105511,20.0697
1394413165511,20.0542
1394413225522,20.0433
1394413285522,19.9812
1394413345522,20.0478
1394413405522,20.0110
1394413465522,20.0458
1394413525522,20.1068
1394413585522,20.0551
1394413645522,20.1290
1394413705522,20.1716
1394413765522,20.1592
1394413825522,20.1568
1394413885522,20.0070
1394414425522,20.0751
1394414485522,19.9957
1394414545522,20.0630
1394414605522,20.2010
1394414665522,20.1431
1394414725522,20.1399
1394414785522,20.1160
1394414845522,20.2000
1394414905522,20.2071
1394414965522,20.3072
1394415025522,20.3843
1394415085522,20.4111
1394415145522,20.3136
1394415205522,20.2785
1394415265522,20.3064
1394415325522,20.3630
1394415385522,20.1862
1394415445522,20.2179
1394415505522,20.1469
1394415565522,20.1480
1394415625522,20.1861
1394415685522,20.1111
1394415745522,20.1428
1394415805522,20.1675
1394415865522,20.1938
1394415925522,20.3441
1394415985522,20.6748
1394416045522,21.0558
1394416105522,20.5939
1394416165522,20.3190
1394416225522,20.2874
1394416285522,20.2452
1394416345522,20.2052
1394416405522,20.1121
1394416465522,20.1241
1394416525522,20.0579
1394416585522,20.0676
1394416645522,20.0488
1394416705522,20.0881
1394416765522,20.1329
1394416825534,20.0444
1394416885534,20.0583
1394416945534,19.9866
1394417005534,20.0667
1394417065534,20.0530
1394417125534,20.0710
1394417185534,20.0105
1394417245534,20.0198
1394417305534,19.9859
1394417365534,20.0741
1394417425534,20.0694
1394417485534,20.1209
1394417545534,20.0154
1394417605534,20.0577
1394417665534,19.9876
1394417725534,20.0077
1394417785534,20.0263
1394417845534,19.9952
1394417905534,20.0512
1394417965534,20.0697
1394418025534,20.0616
1394418085534,20.0326
1394418145534,19.9748
1394418205534,20.0041
1394418265534,20.0230
1394418325534,20.0857
1394418385534,20.2579
1394418445534,20.2747
1394418505534,20.2820
1394418565534,20.2744
1394418625534,20.1896
1394418685534,20.2114
1394418745534,20.1692
1394418805534,20.1536
1394418865534,20.2013
1394418925534,20.2704
1394418985534,20.2616
1394419045534,20.2173
1394419105534,20.2553
1394419165534,20.2880
1394419225534,20.2442
1394419285534,20.2515
1394419345534,20.2506
1394419405534,20.2411
1394419465534,20.3123
1394419525534,20.1160
1394419585534,20.1243
1394419645534,20.0766
1394419705534,20.0312
1394419765534,20.0743
1394419825534,20.0789
1394419885534,20.0465
1394419945534,20.0486
1394420005534,20.0936
1394420065534,20.0722
1394420125534,20.0725
1394420185534,20.0931
1394420245534,20.0748
1394420305534,20.0381
1394420365534,20.0364
1394420425546,20.0648
1394420485546,20.1742
1394420545546,20.0513
1394420605546,20.0696
1394420665546,20.1069
1394420725546,20.0993
1394420785546,20.1582
1394420845546,20.1781
1394420905546,20.1364
1394420965546,20.0854
1394421025546,20.0383
1394421085546,20.0226
1394421145546,20.0675
1394421205546,20.0366
1394421265546,20.0368
1394421325546,20.0423
1394421385546,20.0522
1394421445546,20.0893
1394421505546,20.0553
1394421565546,20.0644
1394421625546,20.0261
1394421685546,20.1041
1394421745546,20.1262
1394421805546,20.0629
1394421865546,20.0308
1394421925546,20.0949
1394421985546,20.0927
1394422045546,19.9958
1394422105546,20.0215
1394422165546,19.9942
1394422225546,20.0216
1394422285546,20.0399
1394422345546,19.9456
1394422405546,19.9702
1394422465546,20.0138
1394422525546,20.0144
1394422585546,20.0387
1394422645546,20.0231
1394422705546,19.9988
1394422765546,19.9962
1394422825546,19.9870
1394422885546,20.0029
1394422945546,19.8937
1394423005546,19.9280
1394423065546,19.9440
1394423125546,19.8770
1394423185546,19.9541
1394423245546,19.9397
1394423305546,19.9257
1394423365546,19.9493
1394423425546,20.0048
1394423485546,20.0395
1394423545546,19.9903
1394423605546,19.9556
1394423665546,19.9925
1394423725546,19.9398
1394423785546,19.8952
1394423845546,19.8956
1394423905546,19.9619
1394423965546,19.9929
1394424025558,20.0399
1394424085558,20.0537
1394424145558,20.0622
1394424205558,20.0949
1394424265558,20.1242
1394424325558,20.2995
1394424385558,20.4685
1394424445558,20.6701
1394424505558,20.7274
1394424565558,20.7446
1394424625558,20.7726
1394424685558,20.6882
1394424745558,20.6741
1394424805558,20.5115
1394424865558,20.2718
1394424925558,20.2763
1394424985558,20.2791
1394425045558,20.1219
1394425105558,20.0576
1394425165558,20.0460
1394425225558,20.1547
1394425285558,20.0884
1394425345558,20.0847
1394425405558,20.0847
1394425465558,20.0519
1394425525558,20.0591
1394425585558,20.1363
1394425645558,20.1635
1394425705558,20.2246
1394425765558,20.2425
1394425825558,20.3114
1394425885558,20.3397
1394425945558,20.3178
1394426005558,20.3055
1394426065558,20.3185
1394426125558,20.2152
1394426185558,20.2227
1394426245558,20.2211
1394426305558,20.1707
1394426365558,20.1264
1394426425558,20.2332
1394426485558,20.1979
1394426545558,20.1563
1394426605558,20.1967
1394426665558,20.2035
1394426725558,20.1292
1394426785558,20.1576
1394426845558,20.1060
1394426905558,20.1263
1394426965558,20.1290
1394427025558,20.1438
1394427085558,20.1156
1394427145558,20.1562
1394427205558,20.1661
1394427265558,20.1024
1394427325558,20.1795
1394427385558,20.1070
1394427445558,20.1323
1394427505558,20.0699
1394427565558,20.0769
1394427625570,20.1201
1394427685570,20.1429
1394427745570,20.1071
1394427805570,20.1580
1394427865570,20.0795
1394427925570,20.1179
1394427985570,20.0738
1394428045570,20.0338
1394428105570,20.0534
1394428165570,20.0275
1394428225570,20.1156
1394428285570,20.0414
1394428345570,20.0935
1394428405570,20.0696
1394428465570,20.1108
1394428525570,20.1014
1394428585570,20.0611
1394428645570,20.1122
1394428705570,20.0806
1394428765570,20.1159
1394428825570,20.1317
1394428885570,20.1073
1394428945570,20.2267
1394429005570,20.1897
1394429065570,20.1985
1394429125570,20.1184
1394429185570,20.2210
1394429245570,20.1726
1394429305570,20.1798
1394429365570,20.2341
1394429425570,20.2103
1394429485570,20.1324
1394429545570,20.1163
1394429605570,20.1504
1394429665570,20.2048
1394429725570,20.2804
1394429785570,20.2103
1394429845570,20.2090
1394429905570,20.1558
1394429965570,20.0900
1394430025570,20.1311
1394430085570,20.1659
1394430145570,20.2250
1394430205570,20.2446
1394430265570,20.2393
1394430325570,20.2015
1394430385570,20.1628
1394430445570,20.1402
1394430505570,20.0973
1394430565570,20.1290
1394430625570,20.0296
1394430685570,20.0849
1394430745570,20.0824
1394430805570,20.0071
1394430865570,20.1706
1394430925570,20.0956
1394430985570,19.9934
1394431045570,20.0598
1394431105570,19.9907
1394431165570,19.9956
1394431225581,19.9938
1394431285581,20.0198
1394431345581,20.0272
1394431405581,19.9684
1394431465581,19.9966
1394431525581,19.9614
1394431585581,20.0550
1394431645581,20.0642
1394431705581,20.0515
1394431765581,19.9820
1394431825581,20.1184
1394431885581,20.0479
1394431945581,20.0328
1394432005581,20.0333
1394432065581,20.0090
1394432125581,20.0189
1394432185581,20.0360
1394432245581,20.0502
1394432305581,20.0990
1394432365581,20.0778
1394432425581,20.0406
1394432485581,20.0815
1394432545581,20.0439
1394432605581,20.0698
1394432665581,19.9149
1394432725581,19.4385
1394446045625,20.1627
1394446105626,20.0965
1394446165626,20.0675
1394446225626,20.0969
1394446285626,20.1073
1394446345625,20.1552
1394446405625,20.1128
1394446465625,20.0919
1394446525625,20.0544
1394446585625,20.0698
1394446645625,20.1416
1394446705625,20.0974
1394446765625,20.0876
1394446825625,20.1808
1394446885625,20.0746
1394446945625,20.1174
1394447005625,20.0570
1394447065625,20.0351
1394447125625,20.0715
1394447185625,20.0700
1394447245625,20.0516
1394447305625,20.0650
1394447365625,20.1586
1394447425626,20.0517
1394447485626,20.1027
1394447545626,20.0695
1394447605626,20.0733
1394447665625,20.1282
1394447725625,20.1783
1394447785625,20.3449
1394447845625,20.5820
1394447905625,20.6592
1394447965625,20.7126
1394448025625,20.9593
1394448085625,20.8211
1394448145625,20.7677
1394448205625,20.6576
1394448265625,20.4312
1394448325625,20.3431
1394448385625,20.4340
1394448445625,20.3878
1394448505625,20.3871
1394448565625,20.3565
1394448625625,20.2788
1394448685625,20.2245
1394448745625,20.1876
1394448805626,20.3172
1394448865626,20.2483
1394448925626,20.2188
1394448985626,20.2363
1394449045625,20.2892
1394449105625,20.3225
1394449165625,20.2173
1394449225637,20.1136
1394449285637,20.2018
1394449345637,20.2250
1394449405637,20.1479
1394449465637,20.0395
1394449525637,20.0995
1394449585637,20.0382
1394449645637,20.0507
1394449705637,20.0873
1394449765637,20.0380
1394449825637,20.0236
1394449885637,20.0178
1394449945637,19.9812
1394450005637,20.1038
1394450065637,20.0145
1394450125637,20.0586
1394450185637,20.0685
1394450245637,20.1066
1394450305637,20.0504
1394450365637,20.1086
1394450425637,20.0517
1394450485637,20.0016
1394450545637,20.0712
1394450605637,20.0595
1394450665637,20.0526
1394450725637,20.0702
1394450785637,20.1005
1394450845637,20.0665
1394450905637,20.1350
1394450965637,20.1698
1394451025637,20.3160
1394451085637,20.5295
1394451145637,20.6308
1394451205637,20.6383
1394451265637,20.4850
1394451325637,20.3486
1394451385637,20.3004
1394451445637,20.4647
1394451505637,20.3368
1394451565637,20.3739
1394451625637,20.5060
1394451685637,20.4752
1394451745637,20.4862
1394451805637,20.3786
1394451865637,20.3422
1394451925637,20.3142
1394451985637,20.2745
1394452045637,20.2786
1394452105637,20.2759
1394452165637,20.2885
1394452225637,20.3192
1394452285637,20.3623
1394452345637,20.2877
1394452405637,20.3023
1394452465637,20.3228
1394452525637,20.2728
1394452585637,20.2895
1394452645637,20.2111
1394452705637,20.3011
1394452765637,20.3973
1394452825649,20.4142
1394452885649,20.3740
1394452945649,20.4320
1394453005649,20.3974
1394453065649,20.3754
1394453125649,20.3882
1394453185649,20.3337
1394453245649,20.3294
1394453305649,20.3135
1394453365649,20.3136
1394453425649,20.3064
1394453485649,20.2531
1394453545649,20.2641
1394453605649,20.2379
1394453665649,20.1748
1394453725649,20.1675
1394453785649,20.2058
1394453845649,20.1577
1394453905649,20.2175
1394453965649,20.0950
1394454025649,20.1162
1394454085649,20.1470
1394454145649,20.1557
1394454205649,20.1223
1394454265649,20.1378
1394454325649,20.1682
1394454385649,20.1915
1394454445649,20.2441
1394454505649,20.1556
1394454565649,20.1006
1394454625649,20.0725
1394454685649,20.1660
1394454745649,20.1369
1394454805649,20.0993
1394454865649,20.0899
1394454925649,20.1002
1394454985649,20.0519
1394455045649,20.1190
1394455105649,20.0269
1394455165649,20.0087
1394455225649,19.9963
1394455285649,20.1011
1394455345649,20.0824
1394455405649,20.0253
1394455465649,20.0834
1394455525649,20.1075
1394455585649,20.1199
1394455645649,20.0960
1394455705649,20.1390
1394455765649,20.0926
1394455825649,20.1245
1394455885649,20.1565
1394455945649,20.0869
1394456005649,20.1911
1394456065649,20.1356
1394456125649,20.1254
1394456185649,20.1194
1394456245649,20.0301
1394456305649,20.0715
1394456365649,20.0179
1394456425638,19.9777
1394456485638,19.9229
1394456545638,19.9789
1394456605638,20.0392
1394456665638,19.9965
1394456725638,20.0524
1394456785638,20.0073
1394456845638,20.0402
1394456905638,20.0230
1394456965638,20.0497
1394457025638,20.0268
1394457085638,20.0027
1394457145638,20.1171
1394457205638,20.0615
1394457265638,20.0001
1394457325638,20.0215
1394457385638,19.9594
1394457445638,20.0798
1394457505638,20.0183
1394457565638,20.0652
1394457625638,20.0543
1394457685638,20.1022
1394457745638,20.1219
1394457805638,20.0858
1394457865638,20.1207
1394457925638,20.0492
1394457985638,20.0201
1394458045638,20.0374
1394458105638,20.0486
1394458165638,20.1139
1394458225638,20.1350
1394458285638,20.1435
1394458345638,20.0570
1394458405638,20.0788
1394458465638,20.0764
1394458525638,20.0369
1394458585638,20.0780
1394458645638,20.0587
1394458705638,20.0384
1394458765638,20.1047
1394458825638,20.0242
1394458885638,20.0481
1394458945638,20.0059
1394459005638,20.0618
1394459065638,20.2339
1394459125638,20.1475
1394459185638,20.0758
1394459245638,20.1088
1394459305638,20.1118
1394459365638,20.1360
1394459425638,20.1170
1394459485638,20.0983
1394459545638,20.0948
1394459605638,20.0333
1394459665638,20.1396
1394459725638,20.0576
1394459785638,20.1048
1394459845638,20.0268
1394459905638,20.1444
1394459965638,20.0390
1394460025649,20.1102
1394460085649,19.9563
1394460145649,20.0405
1394460205649,20.0617
1394460265649,19.9716
1394460325649,20.0014
1394460385649,20.0396
1394460445649,20.0972
1394460505649,20.0905
1394460565649,20.0944
1394460625649,20.0707
1394460685649,20.0429
1394460745649,20.0699
1394460805649,20.0808
1394460865649,20.0384
1394460925649,20.1613
1394460985649,20.1326
1394461045649,20.0821
1394461105649,20.1242
1394461165649,20.1011
1394461225649,20.1794
1394461285649,20.1572
1394461345649,20.1776
1394461405649,20.1819
1394461465649,20.1751
1394461525649,20.1418
1394461585649,20.1544
1394461645649,20.1748
1394461705649,20.1621
1394461765649,20.0915
1394461825649,20.8903
1394461885649,20.1477
1394461945649,20.0837
1394462005649,20.1132
1394462065649,20.0945
1394462125649,20.0936
1394462185649,20.1251
1394462245649,20.0559
1394462305649,20.0896
1394462365649,20.0922
1394462425649,20.0348
1394462485649,20.0229
1394462545649,20.0725
1394462605649,20.1176
1394462665649,19.9669
1394462725649,20.0801
1394462785649,20.0765
1394462845649,20.0896
1394462905649,20.1734
1394462965649,20.1618
1394463025649,20.0609
1394463085649,20.0836
1394463145649,20.1087
1394463205649,20.1086
1394463265649,20.0862
1394463325649,20.1211
1394463385649,20.0729
1394463445649,20.0608
1394463505649,20.0696
1394463565649,20.0726
1394463625660,20.5738
1394463685660,20.0960
1394463745660,20.1245
1394463805660,20.1231
1394463865660,20.0906
1394463925660,20.1660
1394463985660,20.1081
1394464045660,20.1670
1394464105660,20.1304
1394464165660,20.1367
1394464225660,20.1545
1394464285660,20.0738
1394464345660,20.0925
1394464405660,20.1331
1394464465660,20.1849
1394464525660,20.1556
1394464585660,20.1677
1394464645660,20.1588
1394464705660,20.1595
1394464765660,20.0395
1394464825660,20.0928
1394464885660,20.0942
1394464945660,20.1062
1394465005660,20.1545
1394465065660,20.4867
1394465125660,21.1336
1394465185660,22.0848
1394465245660,22.3373
1394465305660,22.1164
1394465365660,21.6857
1394465425660,21.7307
1394465485660,21.7511
1394465545660,21.4604
1394465605660,21.2648
1394465665660,20.9384
1394465725660,20.7624
1394465785660,20.5968
1394465845660,20.4622
1394465905660,20.3733
1394465965660,20.4102
1394466025660,20.3874
1394466085660,20.3371
1394466145660,20.3498
1394466205660,20.3137
1394466265660,20.2896
1394466325660,20.3630
1394466385660,20.3474
1394466445660,20.3079
1394466505660,20.2835
1394466565660,20.2869
1394466625660,20.3311
1394466685660,20.2826
1394466745660,20.2425
1394466805660,20.2943
1394466865660,20.3052
1394466925660,20.2546
1394466985660,20.3709
1394467045660,20.2376
1394467105660,20.2691
1394467165660,20.2550
1394467225672,20.2685
1394467285672,20.2494
1394467345672,20.2878
1394467405672,20.2996
1394467465672,20.3132
1394467525672,20.1898
1394467585672,20.1468
1394467645672,20.2339
1394467705672,20.2192
1394467765672,20.1734
1394467825672,20.1767
1394467885672,20.1706
1394467945672,20.1914
1394468005672,20.5374
1394468065672,20.1734
1394468125672,20.1650
1394468185672,20.1923
1394468245672,20.2268
1394468305672,20.1176
1394468365672,20.2061
1394468425672,20.1533
1394468485672,20.2062
1394468545672,20.2011
1394468605672,20.2186
1394468665672,20.1951
1394468725672,20.3050
1394468785672,20.2700
1394468845672,20.2295
1394468905672,20.2582
1394468965672,20.2252
1394469025672,20.1839
1394469085672,20.1589
1394469145672,20.1164
1394469205672,20.0804
1394469265672,20.1260
1394469325672,20.0635
1394469385672,20.1061
1394469445672,20.1717
1394469505672,20.1714
1394469565672,20.1970
1394469625672,20.1613
1394469685672,20.1154
1394469745672,20.1591
1394469805672,20.1776
1394469865672,20.0898
1394469925672,20.1503
1394469985672,20.1683
1394470045672,20.1374
1394470105672,20.1888
1394470165672,20.2159
1394470225672,20.2043
1394470285672,20.1229
1394470345672,20.1820
1394470405672,20.3011
1394470465672,20.1581
1394470525672,20.1690
1394470585672,20.1331
1394470645672,20.1439
1394470705672,20.1863
1394470765672,20.2003
1394470825683,20.1882
1394470885683,20.1243
1394470945683,20.1459
1394471005683,20.1267
1394471065683,20.0831
1394471125683,20.1224
1394471185683,20.1018
1394471245683,20.1305
1394471305683,20.1170
1394471365683,20.1521
1394471425683,20.1088
1394471485683,20.0947
1394471545683,20.1729
1394471605683,20.2194
1394471665683,20.0486
1394471725683,20.1033
1394471785683,20.0974
1394471845683,20.0754
1394471905683,20.0588
1394471965683,20.0734
1394472025683,20.1115
1394472085683,20.1589
1394472145683,20.2433
1394472205683,20.2378
1394472265683,20.1608
1394472325683,20.0967
1394472385683,20.1279
1394472445683,20.1138
1394472505683,20.1359
1394472565683,20.0839
1394472625683,20.1397
1394472685683,20.0831
1394472745683,20.1050
1394472805683,20.1592
1394472865683,20.1497
1394472925683,20.2037
1394472985683,20.1861
1394473045683,20.0857
1394473105683,20.1284
1394473165683,20.1456
1394473225683,20.1642
1394473285683,20.1393
1394473345683,20.1355
1394473405683,20.1313
1394473465683,20.1650
1394473525683,20.1968
1394473585683,20.1296
1394473645683,20.1724
1394473705683,20.2090
1394473765683,20.2223
1394473825683,20.2150
1394473885683,20.2335
1394473945683,20.2543
1394474005683,20.2129
1394474065683,20.2712
1394474125683,20.3129
1394474185683,20.2352
1394474245683,20.2614
1394474305683,20.2283
1394474365683,20.2372
1394474425694,20.2119
1394474485694,20.1682
1394474545694,20.1819
1394474605694,20.1432
1394474665694,20.3197
1394474725694,20.3372
1394474785694,20.3186
1394474845694,20.2631
1394474905694,20.3258
1394474965694,20.3533
1394475025694,20.3398
1394475085694,20.3101
1394475145694,20.3062
1394475205694,20.2944
1394475265694,20.3307
1394475325694,20.2846
1394475385694,20.2400
1394475445694,20.3650
1394475505694,20.3403
1394475565694,20.3677
1394475625694,20.3558
1394475685694,20.3170
1394475745694,20.2428
1394475805694,20.3185
1394475865694,20.3004
1394475925694,20.3328
1394475985694,20.3969
1394476045694,20.3424
1394476105694,20.4204
1394476165694,20.4272
1394476225694,20.5135
1394476285694,20.6874
1394476345694,20.6247
1394476405694,20.4764
1394476465694,20.4605
1394476525694,20.4270
1394476585694,20.3735
1394476645694,20.3658
1394476705694,20.3498
1394476765694,20.4738
1394476825694,20.3459
1394476885694,20.2613
1394476945694,20.2896
1394477005694,20.2445
1394477065694,20.2509
1394477125694,20.2342
1394477185694,20.2433
1394477245694,20.3248
1394477305694,20.3325
1394477365694,20.3345
1394477425694,20.2889
1394477485694,20.2558
1394477545694,20.2044
1394477605694,20.2510
1394477665694,20.2539
1394477725694,20.3201
1394477785694,20.2215
1394477845694,20.2760
1394477905694,20.2149
1394477965694,20.2592
1394478025705,20.2651
1394478085705,20.2777
1394478145705,20.2902
1394478205705,20.2506
1394478265705,20.2652
1394478325705,20.2816
1394478385705,20.2246
1394478445705,20.2072
1394478505705,20.2560
1394478565705,20.2670
1394478625705,20.2354
1394478685705,20.2089
1394478745705,20.2315
1394478805705,20.2114
1394478865705,20.1999
1394478925705,20.2041
1394478985705,20.2744
1394479045705,20.1638
1394479105705,20.2027
1394479165705,20.2105
1394479225705,20.1953
1394479285705,20.1766
1394479345705,20.2536
1394479405705,20.2454
1394479465705,20.2727
1394479525705,20.3200
1394479585705,20.3235
1394479645705,20.3041
1394479705705,20.3051
1394479765705,20.3115
1394479825705,20.2618
1394479885705,20.2991
1394479945705,20.3099
1394480005705,20.3537
1394480065705,20.3627
1394480125705,20.3081
1394480185705,20.3125
1394480245705,20.2259
1394480305705,20.2804
1394480365705,20.2863
1394480425705,20.3434
1394480485705,20.3038
1394480545705,20.3099
1394480605705,20.3508
1394480665705,20.2490
1394480725705,20.3113
1394480785705,20.3508
1394480845705,20.3129
1394480905705,20.2671
1394480965705,20.2972
1394481025705,20.3318
1394481085705,20.3129
1394481145705,20.2593
1394481205705,20.2964
1394481265705,20.2420
1394481325705,20.2243
1394481385705,20.2473
1394481445705,20.2558
1394481505705,20.2691
1394481565705,20.3127
1394481625716,20.3234
1394481685716,20.2377
1394481745716,20.2066
1394481805716,20.3265
1394481865716,20.3281
1394481925716,20.3191
1394481985716,20.3281
1394482045716,20.3090
1394482105716,20.2960
1394482165716,20.3150
1394482225716,20.2064
1394482285716,20.3054
1394482345716,20.3446
1394482405716,20.2886
1394482465716,20.2495
1394482525716,20.2288
1394482585716,20.1757
1394482645716,20.2402
1394482705716,20.2116
1394482765716,20.2015
1394482825716,20.1898
1394482885716,20.1782
1394482945716,20.0815
1394483005716,20.1775
1394483065716,20.3389
1394483125716,20.2671
1394483185716,20.1924
1394483245716,20.2556
1394483305716,20.3082
1394483365716,20.2696
1394483425716,20.1669
1394483485716,20.2727
1394483545716,20.2909
1394483605716,20.3134
1394483665716,20.3252
1394483725716,20.3801
1394483785716,20.5065
1394483845716,20.5465
1394483905716,20.4785
1394483965716,20.5605
1394484025716,20.5141
1394484085716,20.5406
1394484145716,20.4874
1394484205716,20.4824
1394484265716,20.5508
1394484325716,20.5740
1394484385716,20.5092
1394484445716,20.5253
1394484505716,20.5693
1394484565716,20.7123
1394484625716,20.6524
1394484685716,20.4997
1394484745716,20.5542
1394484805716,20.6111
1394484865716,20.5588
1394484925716,20.5514
1394484985716,20.5100
1394485045716,20.5354
1394485105716,20.5106
1394485165716,20.5464
1394485225727,20.5356
1394485285727,20.5621
1394485345727,20.6425
1394485405727,20.5925
1394485465727,20.5904
1394485525727,20.4899
1394485585727,20.5721
1394485645727,20.5748
1394485705727,20.5868
1394485765727,20.5371
1394485825727,20.6250
1394485885727,20.5901
1394485945727,20.6776
1394486005727,20.6628
1394486065727,20.5935
1394486125727,20.5392
1394486185727,20.5072
1394486245727,20.4492
1394486305727,20.5460
1394486365727,20.5653
1394486425727,20.5225
1394486485727,20.5345
1394486545727,20.4806
1394486605727,20.5142
1394486665727,20.5795
1394486725727,20.6107
1394486785727,20.6506
1394486845727,20.5832
1394486905727,20.5685
1394486965727,20.5068
1394487025727,20.4563
1394487085727,20.4302
1394487145727,20.3637
1394487205727,20.4229
1394487265727,20.4178
1394487325727,20.4012
1394487385727,20.3467
1394487445727,20.4202
1394487505727,20.4158
1394487565727,20.4898
1394487625727,20.3915
1394487685727,20.3875
1394487745727,20.4336
1394487805727,20.4586
1394487865727,20.4759
1394487925727,20.4316
1394487985727,20.4257
1394488045727,20.4078
1394488105727,20.4453
1394488165727,20.4766
1394488225727,20.4784
1394488285727,20.4171
1394488345727,20.4426
1394488405727,20.3839
1394488465727,20.4145
1394488525727,20.5210
1394488585727,20.5220
1394488645727,20.5574
1394488705727,20.5099